Vertical_Velocity
-4 2 6 1 2 1 1 1 1 -3 -2 -3 -3 -3 -3 -8 -2 2 4 -2 0 -3
7 2 2 3 0 1 0 0 -1 1 2 1 1 0 4 1 -0 -2 -3 -3 0 -0
1 2 2 -2 -4 -2 1 1 2 2 4 -4 2 -0 -1 -0 -2 -2 -2 -2 -0 0
-0 0 2 3 1 1 3 3 0 1 -6 1 1 1 -2 -5 1 -0 2 -1 -2 4
5 2 0 -1 -3 -3 -1 -7 -3 -1 3 -2 -5 -6 -3 -4 -2 -0 -3 -3 -3 1
5 3 -0 -0 2 -6 -6 0 -7 2 -3 -2 -2 -5 -8 -5 -3 -2 -2 -3 -1 -1
7 7 2 2 -4 -2 -3 -1 -2 -4 -1 -4 1 -1 -3 -3 -1 -2 -2 -2 -3 -1
-1 -2 -1 -1 -1 1 -3 -0 -4 -6 -0 -2 -1 2 -2 -3 -1 -3 -3 -1 -2 -3
-1 -0 -0 -4 0 -3 -2 -2 -5 -1 -1 -4 -1 -1 -1 0 -1 -1 -2 -4 -3 -1
-2 -0 -2 -2 -3 -2 -0 -3 -1 -3 0 -1 -2 -2 1 -2 -1 -0 -3 -1 -0 1
-3 -3 2 3 -3 -0 -1 -2 -1 -2 -4 -4 -3 -4 -1 0 2 1 0 1 -0 -2
-2 2 1 -2 1 2 -2 -1 -1 -3 -1 -2 -2 -4 -4 -1 -1 -1 -2 -2 -2 -2
-0 -5 -6 3 3 -1 2 -2 -2 -3 -1 -0 0 1 -0 -1 -1 -1 2 -4 -3 -4
-2 -5 -0 2 -0 -2 -2 -3 -1 -2 -2 0 1 -1 -1 -0 1 3 -1 -1 -1 -4
Height
5785 5785 5784 5783 5782 5781 5780 5778 5775 5772 5768 5764 5760 5756 5752 5749 5744 5737 5732 5727 5723 5717
5776 5775 5775 5774 5773 5771 5770 5767 5765 5763 5759 5755 5750 5744 5738 5733 5728 5724 5719 5713 5708 5703
5767 5766 5765 5763 5762 5762 5760 5758 5756 5753 5748 5744 5738 5732 5726 5719 5713 5707 5701 5695 5689 5686
5756 5755 5755 5754 5752 5751 5748 5746 5744 5740 5736 5732 5725 5718 5712 5705 5699 5691 5685 5680 5675 5670
5747 5746 5744 5742 5741 5739 5736 5734 5731 5728 5723 5716 5708 5703 5696 5689 5682 5676 5669 5664 5660 5657
5734 5732 5731 5730 5727 5724 5722 5721 5718 5713 5707 5700 5694 5688 5680 5673 5668 5661 5655 5651 5647 5644
5722 5720 5718 5716 5714 5712 5710 5707 5702 5697 5691 5685 5679 5672 5666 5660 5653 5647 5642 5639 5635 5632
5708 5707 5705 5703 5701 5699 5696 5691 5687 5682 5676 5670 5664 5658 5651 5645 5640 5635 5630 5627 5624 5621
5694 5693 5691 5690 5688 5686 5681 5676 5671 5665 5660 5655 5650 5644 5637 5633 5628 5624 5620 5616 5612 5609
5681 5679 5678 5677 5675 5671 5667 5661 5656 5652 5646 5640 5635 5629 5624 5620 5616 5612 5609 5605 5602 5598
5669 5668 5667 5665 5661 5657 5652 5647 5642 5637 5631 5626 5620 5614 5610 5606 5603 5599 5596 5592 5589 5586
5657 5656 5654 5652 5647 5642 5637 5632 5627 5623 5617 5611 5606 5601 5597 5593 5589 5585 5582 5578 5574 5570
5645 5644 5641 5637 5633 5628 5623 5617 5613 5607 5602 5597 5593 5589 5584 5580 5576 5572 5568 5563 5558 5554
5633 5630 5627 5624 5620 5614 5609 5603 5597 5592 5588 5584 5580 5575 5570 5566 5563 5558 5553 5547 5540 5533